Location: ?
(35.4214°N, 139.3011°E)
Time: 22:13:54
(UTC+00:00)

BREEZE M DEB (TANK) - Pass Details

Date: 14 July 2020
Orbit: 285 x 14545 km, 49.5° (Epoch: 10 August)

Event Time Altitude Azimuth Distance (km) Brightness Sun altitude
Rises 11:23:52 0° 315° (NW) 2,645 8.2 -15.2°
Reaches altitude 10° 11:26:46 10° 337° (NNW) 1,276 5.7 -15.6°
Maximum altitude 11:28:28 17° 25° (NNE) 830 3.9 -15.9°
Enters shadow 11:29:03 16° 48° (NE) 869 3.8 -16.0°
